Wetbulb
71.19 71.63 71.01 68.61 61.61 61.03 57.07 58.38 63.81 62.17 63.40 66.17 66.83 65.35 66.19 67.22 64.95 61.57 73.69 74.59 74.02 74.52 75.32 76.36 75.57 75.39 75.40 75.63 75.48 75.39 75.41 75.44 75.36 75.28 75.33 75.23 74.97 74.59 74.73 75.02 74.96 74.86 74.63 73.90 73.10 72.83 72.47 72.31 71.71
70.12 67.75 69.04 65.85 58.23 53.38 54.22 60.90 61.26 63.56 66.01 67.36 67.45 66.54 67.15 64.98 70.18 70.34 72.26 75.06 74.62 74.76 76.14 75.81 75.64 75.27 75.08 75.31 75.42 75.42 75.26 75.36 75.29 75.14 75.06 74.90 74.65 74.57 74.41 74.09 73.83 73.54 73.12 72.66 72.23 71.90 71.57 71.22 70.78
66.37 67.23 63.78 61.35 57.42 54.40 55.02 60.27 61.46 65.30 67.78 66.71 66.21 68.78 69.06 66.11 70.35 70.87 73.86 73.98 74.61 74.42 76.17 77.06 75.84 75.43 75.22 75.03 74.99 75.25 75.47 75.34 75.31 75.21 75.03 74.75 74.20 74.09 73.90 73.86 73.80 73.65 73.31 73.20 73.20 72.82 72.44 72.22 72.26
65.11 64.45 63.90 57.64 55.78 59.26 59.76 62.08 64.62 64.69 67.30 67.44 67.06 66.55 69.54 71.74 71.16 71.91 73.41 73.31 73.24 74.15 75.27 76.08 75.86 75.50 75.40 75.35 74.81 74.63 74.36 74.41 74.43 74.59 74.56 74.53 74.55 74.45 74.46 74.42 74.34 74.42 74.59 74.80 74.57 74.47 74.09 73.57 72.92
64.30 61.72 58.04 56.14 58.12 60.37 64.23 64.89 65.50 64.24 65.59 65.69 67.14 65.91 66.26 71.52 73.61 73.28 72.71 72.12 72.52 73.53 75.10 76.02 75.94 75.48 75.11 75.14 75.31 75.06 74.79 74.62 74.61 74.40 74.06 73.96 73.74 73.62 73.51 73.49 73.51 73.57 73.66 74.05 74.30 74.54 74.39 74.30 73.92
58.03 60.90 56.03 54.87 56.80 61.61 64.45 65.30 65.03 65.44 65.83 66.69 67.09 66.24 66.30 72.14 72.01 71.78 72.15 71.94 72.43 72.38 73.80 74.86 75.39 75.59 74.95 75.09 75.16 74.87 74.17 73.73 73.38 73.30 73.33 73.25 73.18 72.88 72.88 72.93 73.15 73.18 73.23 73.37 73.49 73.70 73.86 74.04 74.04
56.64 57.18 55.34 55.26 57.76 59.46 62.12 65.50 64.17 64.51 64.88 65.04 68.21 64.76 67.72 70.19 72.09 71.92 71.29 71.22 71.71 72.27 72.70 74.11 74.78 75.05 75.41 74.59 73.79 73.51 73.54 73.67 73.87 73.54 72.68 72.81 73.50 73.97 73.49 73.61 72.84 72.95 73.03 73.50 73.82 74.17 74.17 74.52 74.37
58.66 57.10 54.44 55.47 56.60 57.01 62.18 63.47 66.04 64.86 64.44 68.29 68.93 64.33 65.82 70.02 71.77 70.89 70.87 71.05 71.36 71.73 72.04 72.45 73.72 73.89 74.72 74.18 74.02 73.92 73.65 72.93 71.89 71.09 70.47 71.43 72.27 74.69 73.41 73.89 71.05 71.86 71.67 72.16 72.78 73.20 73.47 74.34 74.89
58.82 53.64 52.27 54.20 54.13 60.23 62.01 62.56 67.31 67.69 66.43 67.95 69.58 69.66 70.55 72.40 71.08 69.86 70.57 71.24 72.16 73.05 74.98 75.10 75.22 74.37 73.71 73.80 74.34 72.06 73.18 72.89 72.76 72.53 72.60 73.69 74.23 74.03 73.55 70.88 69.87 70.47 70.85 71.16 71.70 72.40 72.15 72.53 74.07
54.16 52.14 52.26 55.98 57.02 56.57 60.52 62.49 64.66 64.97 65.89 66.49 67.64 70.49 71.84 71.84 70.55 69.89 69.07 69.93 70.20 70.73 72.89 74.82 75.58 75.02 74.16 74.07 74.64 74.08 73.93 73.82 73.64 72.86 73.20 73.18 73.14 72.90 71.16 71.86 70.57 71.48 71.36 72.17 72.26 72.01 72.56 72.34 72.11
53.73 50.78 54.45 55.07 56.39 57.20 58.21 63.24 65.29 63.58 63.89 66.06 66.13 67.95 69.80 69.83 69.18 68.80 68.96 69.91 69.24 70.69 71.16 72.14 73.16 74.71 74.25 73.67 73.53 72.89 73.16 72.65 72.11 71.41 70.85 72.40 72.45 72.22 72.22 72.20 72.35 72.48 72.44 72.10 72.47 72.59 72.05 71.76 71.17
51.14 53.84 54.48 54.65 55.59 56.39 57.07 65.05 63.35 64.28 66.90 68.35 68.32 69.01 69.05 68.06 68.09 68.79 69.29 69.98 70.26 70.77 71.42 71.90 72.21 71.94 73.01 73.25 72.35 72.04 71.50 71.24 70.73 70.13 69.47 69.33 69.76 69.28 70.00 70.31 70.91 70.81 70.98 71.26 71.27 70.95 71.75 72.27 71.56
52.02 53.42 53.81 54.54 54.65 56.30 63.08 63.83 64.81 66.04 67.38 68.15 68.15 68.43 67.82 67.93 68.20 69.35 69.89 70.04 69.84 69.30 70.34 69.51 69.64 69.79 70.54 71.32 70.54 69.95 69.60 69.30 69.46 68.93 68.04 67.58 67.19 67.25 68.44 69.38 69.27 70.00 70.23 69.87 70.12 70.46 71.00 70.96 71.06
53.77 53.94 53.47 54.48 54.41 55.43 60.35 64.55 64.91 65.53 67.05 66.18 66.57 66.45 67.25 67.09 67.87 68.50 68.61 68.38 68.69 68.41 67.91 67.98 68.72 70.04 70.64 69.86 69.66 68.79 68.03 67.98 67.74 67.13 66.01 66.07 65.11 64.76 64.98 66.47 66.70 66.65 65.98 66.81 66.88 67.29 67.89 68.77 69.83
54.68 52.59 55.59 56.76 55.58 54.08 64.04 60.86 62.25 65.78 67.05 65.71 65.70 66.02 66.03 66.30 66.93 66.36 66.82 66.80 67.79 66.33 66.97 67.66 68.01 68.28 67.52 67.28 66.57 65.00 63.55 63.83 63.91 64.76 65.58 63.73 63.67 62.99 62.61 63.58 63.96 63.81 62.89 65.04 65.06 64.21 64.15 64.26 65.14
54.80 55.02 52.75 56.89 55.62 59.27 61.45 55.12 62.39 65.57 65.65 64.63 65.02 65.03 65.12 64.89 64.52 64.73 64.95 65.42 66.73 66.59 65.93 66.39 66.00 66.35 66.93 66.54 65.51 64.42 63.82 63.47 62.75 62.83 62.74 62.04 61.93 61.62 61.28 61.16 61.50 62.14 61.94 61.85 61.84 61.41 61.16 61.20 61.42
52.06 49.96 52.71 55.76 59.03 59.31 59.32 58.78 62.11 65.01 65.22 64.10 64.30 64.05 63.66 62.99 62.56 62.75 62.90 63.07 63.76 64.18 63.72 62.64 62.54 61.71 62.63 63.56 63.89 65.34 64.09 61.81 60.92 60.82 60.56 60.81 60.99 60.81 60.69 60.59 60.94 61.84 61.07 61.21 61.19 60.75 60.72 60.37 60.59
48.84 48.92 51.91 54.90 57.83 59.23 57.31 60.34 61.23 63.38 64.38 64.01 64.27 64.04 63.09 62.08 60.76 61.14 60.95 60.95 60.98 61.40 61.74 61.67 61.58 61.86 62.09 61.57 62.52 60.54 60.44 60.36 60.35 59.88 59.74 60.04 60.11 60.22 60.52 60.24 60.65 60.88 60.07 60.24 60.50 60.36 60.48 60.43 60.03
52.31 50.90 50.10 52.50 58.15 56.92 55.69 60.37 60.32 61.78 62.99 63.34 64.13 63.27 62.48 60.85 60.65 60.56 60.06 60.34 60.62 60.94 60.84 61.03 60.64 61.10 60.60 59.80 58.75 58.54 58.07 59.14 59.22 59.33 59.66 59.58 59.21 59.52 60.10 59.40 59.67 60.34 59.73 60.38 60.44 59.62 59.62 59.18 60.20
52.40 50.64 50.74 55.89 58.82 57.62 55.63 59.73 61.01 60.58 62.12 63.42 63.42 62.85 61.97 60.32 59.39 59.40 60.01 60.39 59.96 59.64 59.96 60.11 60.05 60.26 59.80 59.10 59.26 58.81 58.86 58.78 59.17 59.09 59.49 59.41 58.70 59.14 58.83 59.17 58.86 59.50 59.06 59.79 59.00 58.83 57.14 58.10 60.10
51.45 50.76 53.25 52.49 56.15 57.40 56.44 56.15 58.89 61.07 62.12 63.29 64.07 64.02 62.92 60.72 59.31 59.22 59.42 59.65 59.60 58.99 59.32 59.34 59.43 59.45 59.15 59.31 59.06 58.92 59.22 58.98 57.65 57.62 57.59 57.91 58.34 57.48 57.77 57.68 57.23 57.97 57.77 56.93 58.54 58.62 57.34 55.85 56.80
49.34 52.96 54.34 55.26 52.64 48.92 56.32 47.95 54.50 58.93 59.62 61.18 62.83 63.11 62.08 61.55 60.79 59.98 59.62 59.24 59.04 58.61 59.33 59.52 59.38 59.05 58.80 59.31 58.23 57.90 55.94 54.98 56.03 56.70 57.10 57.07 56.72 56.38 56.01 56.93 57.50 58.53 57.26 59.26 58.11 58.41 57.91 57.60 55.62
50.55 54.12 53.45 54.37 52.45 53.29 53.22 49.59 52.50 59.08 57.49 59.21 61.81 62.20 62.05 61.98 61.06 59.84 59.54 59.83 59.18 59.18 58.86 59.19 59.16 58.42 58.49 58.45 58.07 56.26 55.09 54.92 55.29 55.29 55.29 57.52 55.69 55.90 54.88 56.35 57.34 58.06 57.12 58.95 57.97 57.65 57.60 56.38 55.71
55.88 53.54 54.29 54.74 52.75 47.25 50.22 50.98 51.84 55.79 57.82 59.59 61.53 62.51 62.01 61.64 61.20 60.66 60.70 59.96 58.81 58.81 58.69 58.65 58.60 57.98 57.87 57.68 57.21 55.47 53.75 53.44 52.17 52.64 52.05 51.99 53.36 53.69 55.80 55.11 56.88 58.03 57.39 56.91 58.03 57.05 57.20 55.94 54.82
54.55 52.75 46.83 45.33 44.82 43.73 51.59 49.23 50.29 57.00 57.73 58.03 61.65 62.57 62.68 62.26 61.20 60.15 59.16 58.63 58.47 58.34 57.85 57.73 57.73 56.98 57.22 57.09 56.30 54.61 53.91 53.54 53.07 52.29 51.08 51.61 51.06 52.82 54.70 55.02 56.79 55.57 56.78 57.48 57.89 57.35 56.73 56.01 54.58
52.17 52.12 46.69 39.67 42.15 44.36 49.94 45.89 51.46 58.16 58.99 59.83 61.34 64.30 63.41 62.11 61.45 60.46 59.72 59.45 58.91 58.19 57.65 57.44 57.00 56.45 56.44 56.25 55.92 54.55 54.19 53.23 52.61 53.12 51.78 51.77 51.50 52.66 54.82 56.27 55.51 56.28 55.54 55.54 55.60 54.04 54.27 55.89 54.88
51.57 49.08 53.24 48.77 49.73 46.31 47.85 49.69 55.16 56.78 57.27 58.83 59.21 62.38 62.58 61.93 61.22 60.87 60.28 59.83 58.94 58.05 57.18 56.95 56.52 56.13 56.19 55.98 54.95 54.04 53.74 53.83 52.79 53.56 54.61 52.96 54.30 53.38 54.50 54.71 55.22 55.86 55.83 55.04 55.61 53.89 54.22 54.61 54.89
53.28 54.32 47.96 48.58 42.20 40.95 44.87 46.35 48.45 52.41 54.95 57.44 58.22 60.66 61.91 61.94 61.42 61.11 60.21 59.47 58.86 58.30 57.48 57.08 56.36 55.84 55.78 56.21 54.72 53.02 53.90 53.33 53.39 53.81 54.24 54.83 55.06 55.29 55.22 55.26 55.53 55.53 55.43 55.04 55.51 54.09 54.36 53.78 53.05
50.45 49.86 51.18 51.36 50.11 43.73 41.98 45.09 54.23 53.43 54.69 56.24 57.72 60.06 61.29 61.08 61.08 60.94 59.93 59.33 58.37 58.20 57.56 56.61 56.11 55.69 55.59 55.34 53.74 52.96 52.98 53.72 54.14 53.99 53.84 53.93 54.20 53.70 53.57 54.27 54.54 54.72 54.86 55.18 54.85 54.54 53.62 53.13 53.24
54.58 51.60 51.79 47.33 46.08 48.92 48.11 46.97 55.52 55.44 55.02 55.83 56.40 59.97 61.14 61.76 61.66 61.01 59.97 58.53 57.85 57.30 57.05 56.18 55.48 55.58 55.36 55.12 53.29 53.45 53.88 54.29 53.91 53.98 54.27 54.69 53.99 54.02 52.56 53.37 53.35 53.94 54.29 55.56 53.97 53.10 53.08 52.25 51.88
MSLP
1008.71 1007.86 1006.55 1005.36 1003.97 1000.58 999.72 1000.21 1000.67 1001.65 1002.40 1004.39 1004.70 1004.84 1006.11 1007.03 1007.49 1009.92 1011.56 1011.66 1011.38 1011.91 1012.37 1012.86 1013.95 1014.02 1014.05 1014.00 1014.12 1014.29 1014.35 1014.41 1014.48 1014.53 1014.58 1014.57 1014.55 1014.59 1014.54 1014.38 1014.34 1014.33 1014.24 1014.19 1014.13 1014.04 1014.02 1013.97 1014.01
1007.33 1006.33 1005.69 1003.69 1001.38 1000.08 1001.05 1000.04 1000.60 1002.22 1003.84 1004.65 1005.39 1005.41 1006.33 1008.27 1009.17 1010.27 1010.62 1011.01 1011.34 1011.70 1012.28 1013.31 1014.04 1014.27 1014.30 1014.31 1014.37 1014.52 1014.63 1014.60 1014.65 1014.67 1014.69 1014.79 1014.81 1014.79 1014.75 1014.70 1014.57 1014.55 1014.49 1014.45 1014.41 1014.43 1014.35 1014.22 1013.98
1007.97 1006.17 1004.54 1001.37 999.59 1000.43 1000.03 1000.47 1001.33 1003.16 1004.07 1004.34 1005.36 1006.48 1007.35 1010.20 1010.41 1010.45 1010.79 1010.94 1011.09 1011.67 1012.42 1013.85 1014.25 1014.48 1014.55 1014.65 1014.74 1014.85 1014.94 1014.99 1015.05 1015.04 1015.07 1015.15 1015.24 1015.22 1015.15 1015.08 1014.93 1014.78 1014.70 1014.59 1014.49 1014.47 1014.46 1014.37 1014.31
1006.27 1004.39 1003.23 1000.67 1000.55 1000.05 1000.41 1000.89 1002.04 1003.14 1003.95 1004.88 1005.41 1007.38 1009.88 1011.25 1011.07 1011.02 1010.83 1011.07 1011.23 1011.14 1012.48 1014.20 1014.50 1014.70 1014.75 1014.82 1014.89 1015.01 1015.11 1015.18 1015.29 1015.37 1015.35 1015.32 1015.38 1015.33 1015.22 1015.16 1015.09 1015.00 1014.92 1014.78 1014.70 1014.63 1014.49 1014.43 1014.32
1005.68 1003.55 1000.94 999.78 1000.45 1000.77 1000.73 1001.47 1001.96 1002.99 1004.39 1005.32 1005.86 1008.13 1010.01 1010.99 1011.11 1011.22 1011.03 1010.83 1011.04 1011.60 1012.40 1013.85 1014.77 1014.95 1014.93 1014.91 1015.02 1015.16 1015.34 1015.40 1015.44 1015.48 1015.43 1015.49 1015.47 1015.40 1015.33 1015.23 1015.14 1015.00 1014.88 1014.82 1014.67 1014.52 1014.46 1014.34 1014.22
1004.21 1002.26 1000.30 999.89 1000.81 1000.82 1001.37 1002.22 1002.40 1003.26 1005.16 1005.95 1006.88 1008.34 1010.25 1011.00 1010.87 1010.92 1010.87 1011.03 1011.40 1011.89 1012.05 1013.64 1014.84 1015.01 1015.07 1015.17 1015.25 1015.38 1015.48 1015.60 1015.66 1015.65 1015.62 1015.54 1015.52 1015.37 1015.22 1015.09 1014.98 1014.86 1014.80 1014.67 1014.55 1014.38 1014.25 1014.16 1014.06
1004.11 1001.76 1000.22 1000.18 1000.82 1001.21 1001.85 1002.51 1002.31 1003.26 1005.22 1006.15 1006.43 1008.14 1010.20 1010.42 1010.90 1011.37 1011.32 1011.32 1011.44 1011.58 1011.93 1012.31 1013.51 1014.65 1015.02 1015.32 1015.51 1015.61 1015.62 1015.64 1015.66 1015.64 1015.62 1015.48 1015.30 1015.18 1014.99 1014.88 1014.89 1014.88 1014.75 1014.55 1014.34 1014.17 1014.03 1013.89 1013.75
1003.77 1002.41 1000.85 1000.26 1000.22 1001.21 1001.40 1002.64 1003.29 1003.68 1006.14 1007.26 1007.04 1007.89 1010.23 1011.70 1011.11 1011.00 1011.01 1011.15 1011.37 1011.45 1011.64 1012.23 1012.75 1012.93 1013.75 1014.35 1015.45 1015.52 1015.62 1015.70 1015.66 1015.62 1015.47 1015.26 1014.98 1014.55 1014.58 1014.62 1014.88 1014.78 1014.62 1014.38 1014.15 1013.88 1013.69 1013.51 1013.35
1004.09 1002.94 1001.05 1000.22 1000.29 1000.79 1002.26 1002.73 1004.46 1005.55 1006.49 1007.80 1008.54 1008.89 1010.83 1011.35 1010.87 1010.89 1010.95 1011.42 1012.02 1012.43 1013.01 1013.36 1013.55 1013.12 1013.04 1013.34 1014.62 1015.47 1015.24 1015.34 1015.38 1015.22 1015.17 1014.63 1014.00 1013.95 1013.79 1014.48 1014.59 1014.56 1014.42 1014.12 1013.79 1013.59 1013.39 1013.00 1012.64
1003.82 1002.57 1001.14 1000.15 1000.03 1000.66 1002.02 1002.75 1004.60 1005.98 1007.32 1008.70 1009.93 1011.03 1011.69 1011.33 1011.15 1011.60 1012.43 1012.61 1014.29 1014.71 1014.68 1014.59 1014.79 1014.12 1014.02 1013.55 1014.04 1014.04 1014.26 1014.62 1015.27 1015.58 1015.45 1014.51 1014.64 1014.42 1014.38 1014.15 1014.23 1014.12 1013.95 1013.37 1013.27 1013.07 1012.71 1012.58 1011.68
1003.19 1002.18 1001.03 1000.63 1001.15 1001.41 1002.30 1003.02 1004.37 1005.42 1007.28 1008.83 1009.88 1011.28 1011.71 1012.16 1012.91 1013.19 1013.75 1014.05 1015.08 1015.29 1015.53 1015.56 1015.55 1015.14 1014.64 1013.98 1014.27 1014.24 1014.48 1015.45 1015.53 1015.87 1015.95 1015.09 1014.85 1014.86 1014.21 1013.50 1013.13 1013.19 1013.24 1012.28 1012.71 1012.11 1011.58 1011.89 1011.68
1002.86 1002.16 1001.63 1001.48 1001.97 1002.18 1002.60 1003.81 1005.20 1005.31 1007.43 1009.91 1011.09 1011.69 1012.27 1012.87 1013.22 1013.74 1014.38 1014.79 1015.02 1015.45 1015.66 1015.82 1016.07 1016.06 1015.79 1015.07 1014.94 1015.32 1015.29 1015.90 1015.63 1016.02 1016.54 1016.02 1015.54 1016.07 1015.68 1014.89 1014.48 1014.20 1013.56 1013.24 1012.87 1012.38 1012.32 1011.97 1011.62
1002.74 1001.91 1002.36 1002.34 1002.53 1002.93 1003.40 1004.96 1006.18 1008.40 1010.23 1011.35 1011.98 1012.01 1012.50 1012.95 1013.45 1013.86 1014.45 1015.01 1015.39 1015.81 1016.22 1016.74 1017.08 1017.14 1016.79 1016.36 1016.25 1016.39 1016.28 1016.38 1016.40 1016.46 1017.06 1016.94 1016.38 1016.41 1015.82 1015.26 1014.74 1014.19 1013.75 1013.55 1013.19 1012.66 1012.29 1011.95 1011.09
1002.37 1002.20 1002.63 1002.70 1003.09 1003.33 1003.87 1006.44 1007.99 1009.80 1011.01 1011.79 1012.34 1012.75 1013.16 1013.56 1013.83 1014.27 1014.63 1015.27 1015.85 1016.42 1017.08 1017.39 1017.46 1017.47 1017.09 1017.01 1017.04 1016.77 1017.05 1016.80 1016.72 1016.85 1017.53 1017.42 1017.22 1017.11 1016.56 1015.58 1015.07 1014.72 1014.85 1014.51 1014.17 1013.47 1013.07 1012.15 1011.24
1002.61 1002.64 1002.57 1002.85 1002.95 1003.43 1004.42 1007.03 1007.76 1009.81 1010.54 1011.50 1012.37 1013.00 1013.64 1014.12 1014.47 1015.09 1015.67 1016.13 1016.42 1017.41 1017.57 1017.37 1017.56 1017.94 1018.09 1018.07 1018.06 1018.11 1018.19 1017.96 1017.70 1017.48 1017.47 1017.98 1017.80 1017.56 1017.21 1015.90 1015.47 1015.36 1015.64 1014.85 1014.21 1013.96 1013.19 1012.44 1011.76
1002.52 1002.12 1002.03 1002.32 1002.93 1003.43 1005.08 1005.60 1008.86 1010.19 1010.41 1011.29 1012.12 1012.90 1013.51 1014.23 1015.02 1015.75 1016.37 1016.88 1017.13 1017.53 1017.96 1018.13 1018.01 1018.16 1018.34 1018.46 1018.34 1018.12 1018.25 1017.87 1017.73 1017.65 1017.62 1018.30 1018.10 1017.91 1017.52 1016.35 1016.07 1016.33 1015.67 1014.75 1014.31 1014.13 1013.62 1013.05 1012.44
1002.10 1001.01 1000.97 1001.94 1003.17 1003.64 1004.93 1006.66 1009.29 1010.44 1010.28 1010.99 1011.96 1012.77 1013.61 1014.69 1015.59 1016.26 1016.82 1017.33 1017.83 1018.30 1018.50 1018.69 1018.88 1018.66 1018.54 1018.34 1018.06 1017.87 1017.83 1017.81 1017.91 1017.89 1018.06 1018.60 1018.21 1018.02 1017.75 1016.71 1016.45 1016.64 1015.49 1014.94 1014.80 1014.62 1014.16 1013.36 1012.71
1000.38 1000.71 1000.13 1000.87 1002.61 1003.45 1004.54 1006.48 1009.27 1010.30 1010.32 1010.82 1011.54 1012.35 1013.32 1014.46 1015.65 1016.55 1017.13 1017.82 1018.41 1018.87 1019.04 1019.31 1019.33 1019.34 1018.88 1018.49 1017.93 1017.58 1017.33 1017.41 1017.82 1018.12 1018.60 1018.85 1018.48 1018.18 1017.88 1017.02 1016.77 1016.52 1015.78 1015.51 1015.53 1015.20 1014.41 1013.61 1012.52
999.96 999.92 999.70 1000.65 1001.75 1003.10 1003.64 1006.48 1008.75 1010.30 1010.61 1010.47 1010.94 1011.95 1013.07 1014.36 1015.85 1016.67 1017.21 1017.92 1018.49 1019.13 1019.45 1019.68 1019.92 1019.98 1019.49 1019.01 1018.63 1018.41 1018.10 1017.96 1018.06 1018.21 1018.78 1018.87 1018.81 1018.37 1017.94 1017.38 1016.93 1016.51 1016.06 1015.89 1015.76 1015.21 1014.37 1013.30 1013.01
1000.58 1000.06 1000.08 1001.34 1002.86 1003.55 1003.37 1005.40 1007.93 1009.67 1010.06 1010.20 1010.51 1011.52 1012.72 1014.36 1015.64 1016.53 1017.17 1017.82 1018.62 1019.16 1019.76 1020.09 1020.24 1020.33 1020.17 1019.79 1019.35 1019.23 1018.59 1018.21 1018.26 1018.14 1018.47 1018.65 1018.75 1018.41 1018.01 1017.87 1017.29 1017.20 1016.38 1016.15 1016.34 1015.95 1015.08 1013.93 1013.37
1000.83 1000.34 1000.61 1001.55 1003.04 1003.40 1003.09 1004.41 1006.69 1008.75 1009.81 1009.89 1010.24 1010.98 1012.13 1013.77 1015.02 1016.02 1016.90 1017.61 1018.37 1019.21 1019.75 1020.24 1020.52 1020.50 1020.65 1020.48 1019.74 1019.41 1018.59 1018.05 1018.15 1018.40 1018.14 1018.78 1018.62 1018.88 1018.69 1018.60 1018.34 1017.86 1017.11 1016.73 1016.80 1016.36 1016.13 1014.84 1014.40
1000.48 1000.65 1000.52 1001.82 1002.70 1002.74 1003.63 1002.96 1004.59 1007.21 1008.62 1009.04 1009.34 1010.20 1011.51 1013.02 1014.50 1015.60 1016.45 1017.29 1018.10 1018.98 1019.70 1020.28 1020.58 1020.70 1020.63 1020.64 1020.23 1020.04 1019.39 1018.99 1019.00 1018.69 1018.84 1019.06 1019.32 1019.49 1019.37 1019.05 1018.55 1017.83 1017.62 1017.17 1016.79 1016.88 1016.47 1015.87 1015.15
1000.16 1000.46 1001.47 1002.03 1002.26 1002.18 1003.85 1003.09 1001.67 1004.77 1006.40 1007.05 1007.96 1009.36 1010.86 1012.43 1013.87 1014.99 1016.04 1016.89 1017.87 1018.76 1019.50 1020.14 1020.54 1020.78 1020.84 1020.77 1020.73 1020.42 1020.44 1020.13 1019.82 1019.80 1020.00 1019.66 1019.89 1019.84 1019.71 1019.20 1018.62 1018.24 1017.88 1017.52 1017.48 1017.25 1016.87 1016.16 1016.13
1000.86 1001.11 1001.64 1002.00 1001.63 1001.19 1001.04 1001.94 1002.15 1002.88 1003.78 1005.80 1006.81 1008.44 1010.24 1011.79 1013.34 1014.42 1015.49 1016.90 1017.78 1018.51 1019.03 1019.84 1020.22 1020.61 1020.84 1020.88 1020.86 1021.23 1021.28 1021.13 1021.00 1020.88 1020.67 1020.55 1020.17 1019.96 1019.59 1019.64 1018.93 1018.54 1018.27 1018.05 1017.61 1017.47 1017.18 1017.10 1016.94
1001.11 1001.18 1001.18 1001.03 1000.63 1000.22 1000.85 1001.74 1001.38 1003.09 1004.29 1004.36 1004.94 1007.09 1009.34 1011.21 1012.84 1013.95 1015.31 1016.54 1017.34 1018.00 1018.90 1019.38 1020.02 1020.40 1020.79 1020.89 1020.98 1021.47 1021.46 1021.48 1021.24 1021.17 1021.10 1020.96 1020.60 1020.36 1020.12 1020.00 1019.28 1018.93 1018.62 1018.20 1017.81 1017.57 1017.21 1017.14 1016.97
1000.68 1000.83 1000.40 1000.14 1000.77 1000.47 1001.62 1000.94 1001.53 1003.05 1003.83 1004.29 1004.87 1005.92 1008.50 1010.61 1012.10 1013.44 1014.84 1015.89 1016.80 1018.08 1018.89 1019.44 1019.88 1020.33 1020.73 1020.97 1021.06 1021.71 1021.74 1021.47 1021.55 1021.62 1021.46 1021.15 1020.89 1020.61 1020.34 1019.61 1019.32 1018.83 1018.48 1018.23 1017.83 1017.86 1017.60 1017.36 1017.05
1000.34 1000.46 1000.54 1000.62 1000.67 1000.73 1000.18 1000.58 1002.09 1002.93 1003.84 1004.81 1005.61 1006.06 1008.18 1010.16 1011.57 1012.95 1014.36 1015.57 1016.49 1017.95 1018.88 1019.38 1019.83 1020.30 1020.65 1020.81 1021.51 1021.90 1021.93 1021.84 1021.94 1021.72 1021.20 1020.87 1020.57 1020.27 1020.12 1019.54 1019.04 1018.68 1018.55 1018.63 1017.98 1018.11 1017.92 1017.67 1017.34
1000.24 1000.34 1001.17 1001.38 1001.22 1000.89 1000.30 1000.98 1000.98 1002.72 1003.41 1004.66 1005.63 1006.64 1008.21 1009.92 1011.16 1012.54 1014.12 1015.51 1016.65 1017.74 1018.90 1019.58 1020.12 1020.30 1020.56 1020.75 1021.51 1021.95 1021.96 1021.92 1021.81 1021.52 1021.00 1020.80 1020.53 1020.10 1019.77 1019.44 1019.16 1018.89 1018.78 1018.85 1018.62 1018.23 1018.28 1018.09 1017.86
1000.72 1000.86 1001.09 1001.49 1002.34 1001.97 1000.93 1001.28 1001.85 1002.28 1002.87 1003.65 1004.75 1006.34 1007.98 1009.55 1010.72 1012.22 1013.98 1015.52 1016.87 1017.69 1018.48 1019.42 1019.69 1020.06 1020.38 1020.82 1021.68 1021.90 1021.80 1021.41 1021.23 1021.15 1021.04 1020.88 1020.72 1020.41 1020.12 1019.85 1019.51 1019.15 1018.92 1018.95 1018.79 1018.46 1018.20 1018.00 1017.89
1000.30 1000.27 1000.76 1001.36 1002.02 1002.23 1002.06 1001.48 1001.93 1002.52 1003.07 1004.07 1004.43 1005.64 1007.08 1009.04 1010.23 1011.82 1013.66 1015.43 1016.41 1017.24 1018.06 1019.13 1019.62 1019.91 1020.52 1021.12 1021.63 1021.61 1021.59 1021.23 1021.30 1021.21 1021.06 1020.82 1020.70 1020.52 1020.37 1020.09 1019.85 1019.45 1019.16 1019.05 1018.77 1018.55 1018.31 1018.11 1017.94
Wind_Speed
10 13 9 9 10 10 7 9 14 5 15 13 12 12 18 19 14 6 8 4 5 12 8 13 9 7 7 8 8 8 8 8 8 7 7 6 5 3 3 3 2 2 2 2 2 3 3 3 2
14 9 9 10 14 14 12 11 14 17 12 8 10 9 14 17 17 11 8 9 9 9 10 13 10 7 7 8 7 6 6 7 7 6 5 4 3 2 2 1 1 0 0 1 2 2 2 1 1
15 11 11 14 10 11 7 11 13 15 10 7 8 10 9 6 12 7 12 10 11 9 13 12 10 8 7 7 7 6 5 4 4 4 3 3 2 3 3 4 4 3 2 2 2 3 3 4 5
8 10 9 13 11 6 13 12 17 11 11 7 8 14 11 7 3 10 10 11 10 11 15 12 9 7 7 7 7 5 4 4 4 3 3 3 4 5 6 7 7 8 8 8 8 7 7 7 7
10 11 15 5 10 3 11 10 12 14 12 9 12 18 11 13 10 10 8 9 12 10 16 14 9 7 7 6 6 6 5 5 4 5 5 6 6 6 7 7 7 8 8 9 10 9 9 9 9
12 9 15 5 12 13 10 6 6 16 13 15 19 15 11 9 10 8 9 10 11 9 10 13 11 9 8 8 9 10 9 9 8 8 7 6 6 5 5 5 6 7 8 9 10 11 11 11 11
15 12 17 1 9 8 10 1 7 16 12 10 9 16 11 12 13 8 8 10 10 10 11 12 14 12 12 11 9 8 7 7 6 6 5 6 6 6 6 6 5 7 7 9 10 12 13 12 12
13 14 20 5 11 9 7 7 4 12 13 6 7 9 13 6 9 9 10 9 10 8 9 11 7 7 15 12 8 7 6 4 2 1 2 7 10 11 8 6 4 6 8 9 10 10 10 12 14
12 13 14 14 9 18 12 11 13 9 13 13 11 20 16 12 10 10 10 10 12 12 18 14 15 6 7 8 10 9 11 8 7 3 3 11 5 9 9 9 2 5 9 10 10 9 11 13 14
15 13 19 16 9 7 10 8 14 12 15 16 17 17 12 11 11 13 8 9 11 9 10 10 11 12 11 4 5 3 4 6 8 11 12 7 8 5 7 5 7 8 10 14 13 13 14 13 8
15 18 14 7 3 5 10 9 14 17 13 13 17 17 11 14 9 10 8 9 10 7 8 9 8 8 11 6 6 5 6 8 6 7 11 9 8 11 9 6 2 5 11 7 5 6 6 11 9
16 16 12 6 7 11 9 10 15 10 21 16 14 14 13 12 11 10 9 7 8 9 9 10 11 10 9 9 8 8 6 5 7 9 11 9 5 6 7 7 8 8 7 8 6 5 11 8 6
14 10 8 5 6 12 13 12 9 18 16 14 12 11 11 11 10 10 10 9 8 9 9 13 11 9 8 8 7 6 7 7 7 7 10 9 9 8 9 7 8 8 9 9 10 10 8 10 11
14 7 10 11 12 14 14 18 10 12 16 15 13 12 10 9 8 8 8 8 9 11 9 9 9 9 9 9 9 8 8 9 7 6 8 10 9 8 9 9 7 7 8 9 9 9 10 10 12
4 10 9 11 16 12 20 16 10 14 16 15 13 11 10 9 9 9 8 8 10 10 8 8 9 11 10 9 8 6 6 5 5 6 7 10 9 9 10 8 8 8 9 10 8 9 10 10 10
14 18 14 12 14 12 17 19 16 13 15 14 13 12 11 10 11 10 10 9 9 9 9 9 9 9 7 6 5 5 6 5 5 5 6 10 9 10 10 8 7 9 10 8 7 8 9 9 10
14 14 20 15 16 15 21 15 14 15 15 14 12 12 11 11 10 10 10 10 11 10 10 11 10 10 9 7 5 1 1 4 5 6 7 10 9 10 9 9 7 10 9 7 8 9 10 9 9
16 17 16 16 15 15 19 13 16 13 13 14 14 12 12 11 11 10 11 11 11 11 11 11 10 11 8 7 7 7 6 5 5 5 7 10 9 10 9 8 8 7 8 7 8 10 10 10 8
15 16 5 3 20 17 21 17 16 14 14 15 14 13 11 11 11 10 11 11 11 10 11 10 10 10 8 8 8 8 8 7 6 5 7 8 9 10 9 8 9 8 8 6 9 9 11 8 8
14 8 8 10 4 12 17 18 15 16 17 16 15 13 13 13 12 11 11 10 10 10 9 9 9 10 10 8 7 8 7 6 4 5 5 8 9 10 9 10 9 11 8 10 11 10 9 7 10
16 15 13 11 10 12 9 12 16 17 17 16 15 13 14 14 13 13 12 11 10 9 8 8 9 9 10 11 8 8 8 6 7 8 6 9 8 12 12 11 8 9 10 6 6 9 10 9 9
16 16 10 11 12 10 11 14 17 18 19 20 19 16 15 14 13 12 12 11 10 9 8 8 8 9 9 10 9 10 8 8 7 7 10 9 10 7 9 8 6 6 7 7 6 8 6 8 9
18 12 7 10 14 12 30 12 15 25 21 22 19 18 15 14 13 14 13 12 11 8 8 7 7 8 9 9 9 9 10 9 8 9 11 8 9 8 9 8 9 9 7 7 9 9 11 7 6
8 11 10 12 14 13 17 12 16 19 18 17 18 18 16 15 14 13 13 12 11 9 8 7 6 7 8 8 8 9 8 9 8 8 7 7 7 6 7 11 9 7 9 9 7 7 8 8 8
11 11 10 13 14 13 9 9 7 13 1 1 21 21 18 16 15 14 14 13 11 9 7 6 7 8 7 7 8 9 8 7 8 9 7 7 6 5 8 8 6 6 5 4 5 6 4 6 5
17 14 14 5 14 9 4 7 7 11 7 8 6 21 19 17 16 15 15 12 11 9 7 6 7 7 6 7 10 9 8 5 7 7 5 5 5 5 6 6 6 5 9 9 7 8 8 8 9
15 19 8 11 8 10 9 10 12 11 9 8 4 10 17 17 16 16 15 11 11 9 6 7 7 6 6 7 9 7 6 8 5 6 4 3 4 3 2 2 6 8 10 10 9 8 9 9 8
12 10 8 9 13 13 8 6 4 8 12 11 7 11 15 16 16 15 13 11 9 8 8 7 5 6 6 8 8 6 5 4 3 3 5 8 8 8 8 8 8 9 9 9 9 8 9 9 8
12 11 8 5 6 11 6 6 7 3 4 8 12 13 16 16 16 15 14 12 11 9 10 6 6 6 6 8 6 4 3 1 5 6 7 7 7 8 8 8 8 8 7 8 7 6 7 7 7
13 17 18 10 15 5 11 7 8 5 6 2 3 15 16 16 16 16 15 13 12 10 9 8 5 6 6 8 4 5 2 5 5 5 5 5 6 8 8 7 7 7 7 4 7 8 8 9 8
Wind_Direction
235 221 252 260 248 212 162 89 69 106 92 64 44 61 72 42 21 64 106 137 120 59 105 107 86 83 85 86 85 88 97 101 106 111 113 116 121 118 111 116 122 117 107 90 95 104 104 103 90
284 277 241 271 247 71 305 122 103 73 76 115 55 62 76 66 72 90 108 139 104 106 88 98 99 88 90 92 93 91 92 100 107 110 108 106 109 112 120 143 158 227 35 28 25 17 22 19 162
268 268 273 247 268 113 125 99 92 94 71 60 108 52 29 29 37 84 93 112 89 98 104 92 104 107 102 99 90 81 74 72 73 77 78 77 45 11 345 326 322 317 308 298 297 308 316 312 308
272 236 240 250 51 59 81 91 92 117 103 69 124 86 92 83 69 90 88 106 135 115 100 97 103 100 97 93 88 82 74 60 39 20 5 353 339 333 327 324 324 323 320 315 314 311 308 303 296
240 262 258 201 122 165 86 91 132 88 80 65 99 83 89 92 115 121 127 119 87 69 126 101 94 92 92 85 88 84 63 47 34 18 9 357 351 342 336 329 325 321 315 311 307 304 298 291 290
270 256 261 151 302 111 119 134 84 79 101 104 107 95 88 118 130 117 91 77 97 90 96 116 119 111 96 84 73 62 51 44 38 27 16 3 345 328 311 306 305 306 304 300 295 289 285 282 277
261 275 272 296 80 164 141 86 201 100 96 63 136 99 116 118 88 107 120 118 117 129 139 139 125 129 119 97 84 79 71 61 55 50 21 339 308 289 279 278 329 332 320 312 301 290 281 273 266
261 273 274 227 172 89 67 152 84 116 76 92 14 130 131 131 147 136 113 109 109 99 106 119 76 127 159 122 115 109 96 96 100 164 318 287 268 235 228 234 70 333 320 308 303 304 301 284 264
261 268 257 241 225 150 137 143 52 92 106 64 62 80 120 150 156 134 119 86 49 27 42 20 18 16 41 114 129 164 158 179 189 228 310 287 290 337 347 86 13 288 282 279 273 277 280 271 257
236 241 253 262 192 243 148 176 141 129 116 105 104 107 119 170 89 68 84 87 61 42 38 34 17 6 14 357 36 63 72 49 50 16 342 344 340 358 291 285 199 220 247 245 243 239 249 257 284
221 247 246 276 311 248 142 142 152 149 135 136 125 108 126 80 98 98 87 76 93 89 66 43 31 29 353 19 333 25 28 14 4 15 1 352 340 8 345 331 326 340 216 346 274 262 264 354 329
239 228 275 275 211 252 150 124 196 128 89 110 122 134 126 135 130 118 104 90 92 72 62 51 41 21 25 349 23 359 25 354 12 15 16 358 8 8 339 343 327 348 336 322 320 324 332 277 278
226 223 219 244 170 212 116 139 77 91 101 116 128 126 121 116 115 110 117 113 81 69 47 51 46 27 19 33 21 23 3 31 0 24 25 7 348 1 335 334 322 329 346 346 333 324 330 304 295
194 213 200 183 203 201 137 115 126 132 139 137 138 129 123 115 106 110 79 72 63 59 50 55 45 39 30 41 26 17 25 6 12 20 20 7 350 357 330 319 334 335 342 341 320 329 310 309 303
215 203 198 212 199 190 130 173 116 159 152 145 145 138 132 125 100 76 76 69 72 68 54 55 70 44 35 28 18 30 20 4 4 356 15 6 357 347 332 324 324 345 326 308 315 325 317 310 311
215 215 197 174 178 158 186 181 141 172 162 162 154 149 137 114 100 95 88 78 72 78 71 62 43 45 40 34 29 13 20 354 2 355 359 15 345 348 329 324 337 355 302 318 324 326 320 312 316
214 215 217 150 184 165 209 118 156 182 182 162 166 159 144 125 112 104 97 90 83 70 66 64 48 41 22 35 358 305 88 16 4 354 5 0 337 345 333 319 345 334 311 331 340 329 315 311 304
199 233 201 172 179 181 201 101 155 185 204 176 177 167 154 144 122 115 108 100 92 81 73 63 51 32 26 16 10 1 359 353 352 355 15 351 345 344 333 322 339 325 323 341 347 325 320 306 311
303 200 193 258 158 207 210 142 158 181 205 191 186 171 162 140 135 127 120 113 102 87 76 60 55 37 17 20 6 356 348 344 356 350 4 352 348 347 335 343 333 346 329 342 342 343 328 319 345
259 248 193 82 140 236 222 156 171 184 206 208 189 178 167 146 152 146 136 120 105 96 83 70 54 45 27 11 3 348 327 327 333 356 332 4 352 344 340 344 332 357 319 44 1 351 349 352 5
231 238 140 220 184 226 245 220 189 193 208 203 214 188 174 173 164 159 150 136 127 110 94 77 58 39 33 6 5 350 338 347 5 346 354 354 358 7 355 357 15 329 1 19 350 1 21 339 16
212 229 165 136 199 209 214 246 147 208 206 206 201 193 178 181 169 166 155 150 136 126 108 84 60 37 37 20 6 349 352 354 348 346 22 326 35 18 350 354 333 355 332 12 354 24 339 13 354
253 160 212 181 225 224 200 249 218 182 202 203 198 192 183 178 178 170 170 153 142 137 107 90 69 45 29 13 17 358 11 353 358 360 350 7 20 7 350 337 4 351 358 28 23 13 14 7 22
130 175 193 218 243 229 251 218 142 183 193 189 191 189 187 174 181 172 158 148 151 149 129 101 70 52 28 14 30 32 18 4 3 9 2 354 350 358 9 343 355 1 7 1 20 18 27 20 24
197 187 209 215 217 237 111 227 318 131 221 38 170 184 178 175 184 176 159 172 166 141 111 102 60 50 31 25 37 43 19 29 21 18 19 13 10 7 17 332 355 7 358 358 359 18 64 40 53
212 199 258 265 268 158 188 234 104 82 76 65 332 167 165 177 176 183 170 173 163 137 124 99 69 52 31 43 53 54 32 28 40 25 358 25 14 12 356 5 21 25 33 17 18 43 18 28 12
199 233 302 302 234 269 262 109 143 141 118 123 151 165 162 176 175 182 168 170 146 139 123 98 68 70 55 63 74 60 20 44 29 2 10 49 58 106 61 27 38 33 38 28 12 54 32 25 17
281 210 209 231 260 260 263 337 58 148 149 148 154 171 165 171 182 173 162 168 140 146 120 97 92 75 71 68 58 65 53 50 22 324 27 35 20 18 24 19 19 16 46 36 15 24 36 27 20
205 237 243 317 209 280 290 84 133 119 88 158 169 178 169 175 184 165 166 157 156 161 138 144 125 90 84 79 83 99 64 267 44 32 30 25 26 16 12 11 10 15 24 27 17 1 28 17 5
295 208 222 226 228 312 313 301 92 106 133 172 322 149 164 179 180 163 166 159 169 165 150 132 121 116 98 83 104 86 173 60 60 40 38 26 25 25 17 12 11 3 14 8 15 1 359 1 0